[TLELIST] Archives

 

Current TLEs

November 3rd 2007 PDT

HST 1 20580U 90037B 07304.58139731 .00000400 00000-0 18227-4 0 9948 2 20580 028.4679 020.6713 0003663 112.4303 247.6677 15.00296666760467 ISS (ZARYA) 1 25544U 98067A 07306.48489980 .00023602 00000-0 15333-3 0 2787 2 25544 051.6389 110.7723 0003515 157.0737 316.3948 15.75846604512591 CXO 1 25867U 99040B 07305.16666667 .00000355 00000-0 10000-3 0 1291 2 25867 062.6264 086.2143 6430985 281.9181 358.8923 00.37800517 2769 ____________________________________________________________________ These 2-Line ...Continue Reading

Current TLEs

November 2nd 2007 PDT

HST 1 20580U 90037B 07304.58139731 .00000400 00000-0 18227-4 0 9948 2 20580 028.4679 020.6713 0003663 112.4303 247.6677 15.00296666760467 ISS (ZARYA) 1 25544U 98067A 07305.53034863 -.00008908 00000-0 -52537-4 0 2724 2 25544 051.6365 115.6852 0002809 151.6466 303.0222 15.75794435512442 CXO 1 25867U 99040B 07305.16666667 .00000355 00000-0 10000-3 0 1291 2 25867 062.6264 086.2143 6430985 281.9181 358.8923 00.37800517 2769 ____________________________________________________________________ These 2-Line ...Continue Reading

Current TLEs

November 1st 2007 PDT

HST 1 20580U 90037B 07303.45051137 .00000361 00000-0 15179-4 0 9934 2 20580 028.4680 028.0467 0003510 102.6822 257.4158 15.00295870760295 ISS (ZARYA) 1 25544U 98067A 07304.51647532 .00018332 00000-0 11964-3 0 2654 2 25544 051.6396 120.9099 0002712 151.0656 308.1042 15.75935177512284 CXO 1 25867U 99040B 07305.16666667 .00000355 00000-0 10000-3 0 1291 2 25867 062.6264 086.2143 6430985 281.9181 358.8923 00.37800517 2769 ____________________________________________________________________ These 2-Line ...Continue Reading

Current TLEs

October 31st 2007 PDT

HST 1 20580U 90037B 07301.58787426 .00000346 00000-0 13976-4 0 9928 2 20580 028.4678 040.1908 0003457 083.2577 276.8406 15.00295003760017 ISS (ZARYA) 1 25544U 98067A 07303.50100388 .00005098 00000-0 36354-4 0 2583 2 25544 051.6392 126.1343 0002646 147.9575 306.2531 15.75893961512129 CXO 1 25867U 99040B 07302.54166667 .00000356 00000-0 10000-3 0 1285 2 25867 062.6172 086.2668 6426076 282.0008 001.4647 00.37797151 2757 ____________________________________________________________________ These 2-Line ...Continue Reading

Current TLEs

October 29th 2007 PDT

HST 1 20580U 90037B 07300.52350958 .00000336 00000-0 13230-4 0 9918 2 20580 028.4678 047.1331 0003337 070.2671 289.8274 15.00294466759851 ISS (ZARYA) 1 25544U 98067A 07300.90939573 .00014099 00000-0 92667-4 0 2412 2 25544 051.6371 139.4786 0002573 139.5015 001.9355 15.76020103511717 CXO 1 25867U 99040B 07299.83333333 .00000457 00000-0 10000-3 0 1279 2 25867 062.5946 086.3422 6425382 282.0575 352.7246 00.37804694 2749 ____________________________________________________________________ These 2-Line ...Continue Reading

Current TLEs

October 27th 2007 PDT

HST 1 20580U 90037B 07299.45914355 .00000398 00000-0 18056-4 0 9902 2 20580 028.4675 054.0732 0003413 059.2541 300.8382 15.00294548759695 ISS (ZARYA) 1 25544U 98067A 07300.14103128 .00013501 00000-0 89008-4 0 2385 2 25544 051.6386 143.4397 0002696 126.9945 332.0681 15.75995179511593 CXO 1 25867U 99040B 07299.83333333 .00000457 00000-0 10000-3 0 1279 2 25867 062.5946 086.3422 6425382 282.0575 352.7246 00.37804694 2749 ____________________________________________________________________ These 2-Line ...Continue Reading

Current TLEs

October 25th 2007 PDT

HST 1 20580U 90037B 07297.72954906 .00000379 00000-0 16538-4 0 9896 2 20580 028.4675 065.3499 0003387 040.7534 319.3310 15.00293590759431 ISS (ZARYA) 1 25544U 98067A 07298.17530367 .00010630 00000-0 71169-4 0 2270 2 25544 051.6374 153.5650 0002742 118.7546 340.2401 15.75932026511281 CXO 1 25867U 99040B 07297.20833333 .00000548 00000-0 10000-3 0 1263 2 25867 062.5698 086.4378 6423523 282.0515 355.4517 00.37809246 2731 ____________________________________________________________________ These 2-Line ...Continue Reading

Current TLEs

October 24th 2007 PDT

HST 1 20580U 90037B 07295.60081566 +.00000352 +00000-0 +14483-4 0 09904 2 20580 028.4669 079.2360 0003267 015.0918 344.9762 15.00292323759116 ISS (ZARYA) 1 25544U 98067A 07297.47381100 .00013211 00000-0 87459-4 0 2223 2 25544 051.6381 157.1741 0002715 118.2972 318.2309 15.75923924511175 CXO 1 25867U 99040B 07297.20833333 .00000548 00000-0 10000-3 0 1263 2 25867 062.5698 086.4378 6423523 282.0515 355.4517 00.37809246 2731 ____________________________________________________________________ These 2-Line ...Continue Reading

Current TLEs

October 23rd 2007 PDT

HST 1 20580U 90037B 07294.86906286 +.00000352 +00000-0 +14488-4 0 00036 2 20580 028.4669 084.0069 0003256 007.0322 353.0312 15.00292051759002 ISS (ZARYA) 1 25544U 98067A 07296.15373810 .00015351 00000-0 10106-3 0 2159 2 25544 051.6378 163.9741 0002741 116.1813 026.1865 15.75895013510961 CXO 1 25867U 99040B 07297.20833333 .00000548 00000-0 10000-3 0 1263 2 25867 062.5698 086.4378 6423523 282.0515 355.4517 00.37809246 2731 ____________________________________________________________________ These 2-Line ...Continue Reading

Current TLEs

October 22nd 2007 PDT

HST 1 20580U 90037B 07294.86906286 .00000352 00000-0 14488-4 0 9877 2 20580 028.4669 084.0069 0003256 007.0322 353.0312 15.00292051759002 ISS (ZARYA) 1 25544U 98067A 07295.25929596 .00015694 00000-0 10334-3 0 2105 2 25544 051.6372 168.5803 0002994 110.2770 354.3473 15.75868586510823 CXO 1 25867U 99040B 07294.58333333 .00000540 00000-0 10000-3 0 1257 2 25867 062.5502 086.5055 6418576 282.0492 358.1853 00.37806654 2726 ____________________________________________________________________ These 2-Line ...Continue Reading
  • This mailing list is a public mailing list - anyone may join or leave, at any time.
  • This mailing list is announce-only.

International Space Station (ISS) / Hubble Space Telescope (HST) / Chandra X-Ray Observatory Orbital Data via EMAIL

Privacy Policy:

Private list